Other Public Products
Issued by NWS Charleston, SC

Current Version | Previous Version | Text Only | Print | Product List | Glossary Off
Versions: 1 2 3 4 5 6 7 8 9 10 11 12 13 14 15 16 17 18 19 20 21 22 23 24 25 26 27 28 29 30 31 32 33 34 35 36 37 38 39 40 41 42 43 44 45 46 47 48 49 50

000
FPUS82 KCHS 200127
OPUCHS

TEST...KCHS/KSAV Gateway Observations...TEST
National Weather Service Charleston SC
800 PM EST THU JAN 19 2017

NOTE: "fair" indicates few or no clouds below 12,000 feet with no
significant weather and/or obstructions to visibility.

SCZ050-WAZ558-NCZ071-TXZ119-213-PAZ071-DCZ001-FLZ074-172-MI076-
NYZ176-178-MAZ016-IL014-TNZ027-NJZ106-GAZ044-MD014-200200-
...Gateway Observations for Charleston International...

CITY           SKY/WX    TMP DP  RH WIND       PRES   REMARKS
Chas Airport   CLEAR     59  52  77 E9        29.99F
Seattle        CLOUDY    47  41  80 S10       29.50S
Charlotte      PTCLDY    59  38  45 S6        29.98F
Dallas DFW     PTCLDY    60  53  77 S15       29.61R
Dallas Love    PTCLDY    59  52  77 S14       29.64R
Philladelphia  CLOUDY    41  33  73 NE6       30.03F
Wash National  PTCLDY    44  39  82 S6        30.04R
Baltimore      CLOUDY    42  36  79 S6        30.03R
Miami          PTCLDY    74  64  71 S5        30.02S
Detroit        CLOUDY    36  33  89 E5        29.97R FOG     WCI  32
Newark         MOCLDY    43  32  65 W7        30.05R
Laguardia      CLOUDY    44  32  62 NW9       30.04S
J F K          MOCLDY    45  30  55 NW10      30.05S
Boston Logan   CLOUDY    42  32  67 N12G18    30.01S
Ft. Lauderdale PTCLDY    74  63  68 S5        30.01S
Chicago O`Hare LGT RAIN  39  37  92 SE9       29.83S FOG     WCI  33
Chicago Midway LGT RAIN  38  36  92 SE7       29.84S FOG     WCI  33
Houston Bush   CLOUDY    63  59  87 W3        29.77R
Houston Hobby  CLOUDY    66  60  81 SW9       29.77S
Nashville      LGT RAIN  60  58  92 SE9       29.73F FOG
Atlanta        CLOUDY    66  51  58 E12       29.90R

$$

GAZ044-118-TXZ119-213-NCZ071-DCZ001-MDZ014-506-PAZ021-071-NJZ106-
NYZ176-178-MAZ106-OHZ011-021-055-MIZ076-KYZ091-ILZ014-INZ047-
MNZ060-200200-
...Gateway Observations for Savannah International...

CITY           SKY/WX    TMP DP  RH WIND       PRES   REMARKS
Savannah Arpt  PTCLDY    59  55  87 SE9       29.97F
Atlanta        CLOUDY    66  51  58 E12       29.90R
Charlotte      PTCLDY    59  38  45 S6        29.98F
Dallas DFW     PTCLDY    60  53  77 S15       29.61R
Houston Bush   CLOUDY    63  59  87 W3        29.77R
Wash National  PTCLDY    44  39  82 S6        30.04R
Wash Dulles    CLOUDY    36  33  89 S3        30.03S
Baltimore      CLOUDY    42  36  79 S6        30.03R
Philadelphia   CLOUDY    41  33  73 NE6       30.03F
Newark         MOCLDY    43  32  65 W7        30.05R
Laguardia      CLOUDY    44  32  62 NW9       30.04S
J F K          MOCLDY    45  30  55 NW10      30.05S
Boston         CLOUDY    42  32  67 N12G18    30.01S
Pittsburg      CLOUDY    36  33  89 CALM      29.97F
Akron          CLOUDY    37  32  82 SE7       29.95F WCI  32
Cleveland      CLOUDY    39  33  79 S8        29.99F WCI  33
Cincinnati     LGT RAIN  47  43  86 E8        29.83F
Columbus         N/A     40  38  90 E6        29.91F WCI  36
Detroit        CLOUDY    36  33  89 E5        29.97R FOG     WCI  32
Chicago O`Hare LGT RAIN  39  37  92 SE9       29.83S FOG     WCI  33
Minneapolis    CLOUDY    36  31  82 SE7       29.74F WCI  30
Indianapolis   RAIN      44  41  89 E13       29.80F FOG

$$




USA.gov is the U.S. government's official web portal to all federal, state and local government web resources and services.